FW6293 Weather Reports


Display with metric or nautical units.
time (UTC)temp
F
wind
direction
speed
MPH
gust
MPH
rain 1hr
in
rain 24hr
in
rain mn
in
humidity
%
barometer
mb
20260504231521 69 244 2.0 9.0 0.00 0.00 0.00 45 1021.0
20260504230006 70 84 3.0 10.0 0.00 0.00 0.00 44 1021.0
20260504224506 70 342 1.0 14.0 0.00 0.00 0.00 45 1021.0
20260504223004 71 202 4.0 10.0 0.00 0.00 0.00 43 1021.0
20260504221505 72 143 2.0 11.0 0.00 0.00 0.00 42 1021.0
20260504220007 73 302 6.0 12.0 0.00 0.00 0.00 43 1021.0
20260504214502 74 295 6.0 11.0 0.00 0.00 0.00 40 1021.0
20260504213004 73 284 4.0 9.0 0.00 0.00 0.00 40 1021.0
20260504211559 73 265 5.0 11.0 0.00 0.00 0.00 44 1021.0
20260504210110 73 290 11.0 17.0 0.00 0.00 0.00 40 1021.0
20260504204602 73 294 10.0 15.0 0.00 0.00 0.00 42 1021.0
20260504203054 72 277 6.0 13.0 0.00 0.00 0.00 42 1021.0
20260504201554 72 299 7.0 13.0 0.00 0.00 0.00 43 1021.0
20260504200052 72 296 11.0 15.0 0.00 0.00 0.00 43 1021.0
20260504194605 72 311 8.0 15.0 0.00 0.00 0.00 44 1021.0
20260504193047 72 278 5.0 14.0 0.00 0.00 0.00 42 1021.0
20260504191549 71 295 9.0 16.0 0.00 0.00 0.00 46 1021.0
20260504184551 71 295 9.0 16.0 0.00 0.00 0.00 46 1021.0
20260504183041 70 282 12.0 18.0 0.00 0.00 0.00 43 1021.0
20260504181544 69 275 7.0 22.0 0.00 0.00 0.00 47 1021.0
20260504174536 69 279 5.0 17.0 0.00 0.00 0.00 46 1021.0
20260504173038 69 269 9.0 16.0 0.00 0.00 0.00 45 1021.0
20260504171533 68 302 11.0 19.0 0.00 0.00 0.00 48 1021.0
20260504150115 62 312 6.0 13.0 0.00 0.00 0.00 48 1021.0
20260504081514 36 295 0.0 0.0 0.00 0.00 0.00 84 1021.0
20260504050117 42 295 0.0 0.0 0.00 0.00 0.00 74 1021.0
20260504044550 42 295 0.0 0.0 0.00 0.00 0.00 74 1021.0
20260504043057 42 295 0.0 0.0 0.00 0.00 0.00 72 1021.0
20260504041548 42 295 0.0 0.0 0.00 0.00 0.00 73 1021.0
20260504040045 41 295 0.0 0.0 0.00 0.00 0.00 73 1021.0
20260504034550 41 295 0.0 0.0 0.00 0.00 0.00 72 1021.0
20260504033046 42 295 0.0 0.0 0.00 0.00 0.00 70 1021.0
20260504031602 43 295 0.0 0.0 0.00 0.00 0.00 70 1021.0
20260504030044 43 295 0.0 0.0 0.00 0.00 0.00 68 1021.0
20260504024544 44 295 0.0 0.0 0.00 0.00 0.00 67 1021.0
20260504023042 44 295 0.0 0.0 0.00 0.00 0.00 65 1021.0
20260504021541 45 295 0.0 0.0 0.00 0.00 0.00 64 1021.0
20260504020041 46 295 0.0 0.0 0.00 0.00 0.00 62 1021.0
20260504014541 46 295 0.0 0.0 0.00 0.00 0.00 62 1021.0
20260504013040 47 295 0.0 0.0 0.00 0.00 0.00 62 1021.0
20260504011544 48 295 0.0 2.0 0.00 0.00 0.00 59 1021.0
20260504010044 49 296 0.0 0.0 0.00 0.00 0.00 58 1021.0
20260504004539 50 296 0.0 3.0 0.00 0.00 0.00 57 1021.0
20260504003044 51 300 1.0 3.0 0.00 0.00 0.00 55 1021.0
20260504001549 52 300 1.0 4.0 0.00 0.00 0.00 54 1021.0
20260504000037 53 300 1.0 3.0 0.00 0.00 0.00 52 1021.0
20260503234537 55 301 3.0 5.0 0.00 0.00 0.00 46 1021.0
20260503233037 56 305 3.0 7.0 0.00 0.00 0.00 45 1021.0